Regional Weather Roundup
Issued by NWS

Home | Current Version | Previous Version | Text Only | Print | Product List | Glossary On
Versions: 1 2 3 4 5 6 7 8 9 10 11 12 13 14 15 16 17 18 19 20 21 22 23 24 25 26 27 28 29 30 31 32 33 34 35 36 37 38 39 40 41 42 43 44 45 46 47 48 49 50
000
ASUS43 KOAX 271010
RWRNE

WEATHER ROUNDUP FOR NEBRASKA
NATIONAL WEATHER SERVICE OMAHA NE
500 AM CDT SAT MAY 27 2017

NOTES: SATELLITE DATA IS BEING USED TO AUGMENT CLOUD COVER ABOVE
       12000 FEET.
       "FAIR" INDICATES FEW OR NO CLOUDS BELOW 12,000 FEET WITH NO
       SIGNIFICANT WEATHER AND/OR OBSTRUCTIONS TO VISIBILITY.

  * THESE STATIONS DO NOT REPORT WEATHER SUCH AS RAIN...SNOW OR FOG.

NEZ001>004-019>022-054>056-271100-
NEBRASKA PANHANDLE

CITY           SKY/WX    TMP DP  RH WIND       PRES   REMARKS
SCOTTSBLUFF    CLOUDY    49  46  90 NW5       30.00F
ALLIANCE       LGT RAIN  49  48  97 NW10      30.00S
CHADRON        LGT RAIN  50  48  93 CALM      29.99F
GORDON         CLOUDY    50  48  93 NW5       29.99S
KIMBALL        CLOUDY    46  46  97 CALM      30.01F
SIDNEY         CLOUDY    51  49  92 NW9       30.01R
$$

NEZ057>060-069>072-079>082-271100-
SOUTHWEST NEBRASKA

CITY           SKY/WX    TMP DP  RH WIND       PRES   REMARKS
NORTH PLATTE   CLOUDY    53  51  93 NE12      29.91R
IMPERIAL       CLOUDY    53  51  93 N10       29.91R
LEXINGTON      CLOUDY    56  54  92 E6        29.89S
MCCOOK         CLOUDY    57  56  96 CALM      29.90R
OGALLALA       CLOUDY    52  51  93 NE6       29.93F
$$

NEZ005>010-023>029-035>040-094-271100-
NORTH CENTRAL NEBRASKA

CITY           SKY/WX    TMP DP  RH WIND       PRES   REMARKS
VALENTINE      CLOUDY    52  48  86 NW10      29.96R
AINSWORTH      CLOUDY    53  51  95 SE3       29.92F
BROKEN BOW     CLOUDY    54  52  93 NE15      29.89F
O`NEILL        LGT RAIN  54  52  92 N3        29.95F
ORD            LGT RAIN  55  51  86 N5        29.92S
THEDFORD       CLOUDY    52  51  95 CALM      29.92S
$$

NEZ041-046>049-061>064-073>077-083>087-271100-
SOUTH CENTRAL NEBRASKA

CITY           SKY/WX    TMP DP  RH WIND       PRES   REMARKS
GRAND ISLAND   LGT RAIN  58  52  80 W10       29.93R
AURORA         CLOUDY    59  47  63 CALM      29.90R
HASTINGS       LGT RAIN  59  51  75 W9        29.95R
HEBRON         CLOUDY    63  50  63 NE5       29.87S
HOLDREGE       CLOUDY    58  55  89 SE20      29.83F
KEARNEY *      CLOUDY    57  50  77 NE12      29.89F
YORK           CLOUDY    59  46  63 E7        29.89S
$$

NEZ011>018-030>034-042>045-271100-
NORTHEAST NEBRASKA

CITY           SKY/WX    TMP DP  RH WIND       PRES   REMARKS
NORFOLK        CLOUDY    55  49  80 SW3       29.89R
ALBION         LGT RAIN  58  47  66 NW12      29.93R
BLAIR          CLOUDY    59  47  64 NE8       29.87S
FREMONT        CLOUDY    58  45  60 CALM      29.88F
TEKAMAH        CLOUDY    54  47  77 NW5       29.88F
WAYNE          CLOUDY    54  51  90 CALM      29.89S
$$

NEZ050>053-065>068-078-088>093-271100-
SOUTHEAST NEBRASKA

CITY           SKY/WX    TMP DP  RH WIND       PRES   REMARKS
LINCOLN        CLOUDY    61  47  59 N5        29.88R
OMAHA EPPLEY   CLOUDY    57  49  74 NW8       29.87F
BEATRICE       CLOUDY    64  50  61 NE9       29.86R
FALLS CITY     CLOUDY    64  53  67 NE9       29.81F
NEBRASKA CITY  CLOUDY    64  43  46 NE9       29.85F
PLATTSMOUTH    CLOUDY    64  46  51 NE6       29.86F
$$

NEZ044-045-051>053-067-271100-
OMAHA AREA

CITY           SKY/WX    TMP DP  RH WIND       PRES   REMARKS
OMAHA EPPLEY   CLOUDY    57  49  74 NW8       29.87F
BLAIR          CLOUDY    59  47  64 NE8       29.87S
FREMONT        CLOUDY    58  45  60 CALM      29.88F
MILLARD        CLOUDY    65  48  53 CALM      29.87S
OFFUTT AFB     CLOUDY    61  47  62 NE5       29.85F
PLATTSMOUTH    CLOUDY    64  46  51 NE6       29.86F
WAHOO          FAIR      57  46  66 NE3       29.87S
$$



USA.gov is the U.S. government's official web portal to all federal, state and local government web resources and services.